Wind_Speed
20 19 18 18 18 17 17 18 19 18 17 16 14 12 11 10 8 6 5 5 4 6 6 5 3 3 5 5 5 5 6 7 7 7 8 8 8 9 9 10 9 10 11 12 12 12 12 14 15 15 14 16 18 18 19 20 21 22 23 23 22 21 20 22 22 21 22 24 25 26 28 29 30 30 30 30 31 32 32 31 30 31 31 30 29
20 19 19 18 18 18 18 19 20 19 18 16 14 13 12 10 9 7 6 5 4 7 7 5 4 5 6 6 5 5 6 7 7 7 7 7 8 8 9 9 9 10 11 11 12 11 12 13 14 14 13 15 17 17 18 19 20 22 23 23 23 22 21 22 23 23 24 25 26 26 28 29 29 30 29 29 29 30 31 32 32 32 32 31 30
21 20 20 19 18 19 19 20 20 19 18 17 15 15 13 11 9 8 6 4 6 8 8 6 5 6 7 6 5 5 6 8 8 7 7 7 8 8 8 9 9 9 10 11 12 11 12 13 14 13 13 14 16 16 17 18 20 21 22 23 23 23 22 22 23 25 25 25 26 27 27 28 28 27 27 27 27 28 30 31 31 32 33 32 31
22 22 22 20 19 20 19 19 20 19 18 17 16 16 14 12 10 9 7 5 7 10 9 8 7 7 8 6 5 5 6 7 7 6 6 7 7 7 7 8 9 9 10 11 11 11 12 13 13 13 13 14 15 16 16 17 18 19 21 22 22 22 22 23 24 25 25 25 26 27 27 28 28 27 27 27 27 28 29 30 30 31 32 32 32
23 24 23 22 21 21 20 20 20 20 19 18 18 16 15 12 10 9 8 6 8 11 11 9 8 7 7 6 5 5 5 6 6 5 5 6 6 6 7 8 8 9 10 10 11 11 12 13 14 13 13 14 15 15 14 15 17 18 19 20 20 21 21 22 23 25 26 26 27 27 27 28 29 28 29 29 29 28 29 29 30 31 31 32 32
23 24 24 23 22 22 22 22 21 21 20 19 18 17 15 13 11 10 8 7 9 12 12 10 8 7 7 6 5 4 4 5 5 4 4 5 6 6 6 7 8 9 9 10 10 11 13 14 14 13 13 15 15 15 14 14 15 17 18 19 19 20 21 22 23 25 26 27 27 28 28 29 29 29 30 31 31 30 30 30 30 31 32 32 32
23 25 25 23 22 22 22 22 21 21 19 18 18 17 15 13 11 10 8 8 11 13 13 11 9 8 6 5 5 4 3 3 4 3 3 5 5 5 6 6 7 8 9 10 10 11 13 14 14 14 14 15 15 15 14 14 15 16 17 18 18 19 21 22 24 25 26 27 28 29 29 29 29 30 30 31 31 31 31 31 31 31 32 33 32
23 23 24 24 23 22 23 22 21 20 19 19 18 17 15 13 11 10 9 9 12 14 14 11 10 8 7 6 5 4 3 2 2 2 2 4 5 5 6 6 7 7 8 9 10 10 12 13 14 14 14 14 15 15 15 14 15 16 17 18 18 20 21 22 24 24 25 27 28 29 29 29 31 31 31 32 32 32 32 31 31 32 33 33 33
22 21 21 23 24 23 22 22 21 20 19 19 18 16 15 13 12 12 12 12 13 15 15 12 10 9 7 6 5 4 3 2 1 1 1 3 5 6 6 7 7 7 7 8 9 10 10 11 13 13 13 14 15 15 15 15 15 16 17 17 18 20 21 22 23 24 24 26 27 28 29 30 31 32 32 32 32 31 30 30 31 32 32 32 32
23 22 21 22 23 22 22 22 22 21 20 20 19 16 14 13 13 14 15 15 15 16 16 14 11 8 7 6 6 5 4 2 1 1 2 3 5 6 6 7 7 7 7 7 8 9 9 10 11 12 12 13 14 15 16 15 15 15 16 17 18 19 20 21 22 23 23 25 26 27 28 29 30 30 30 29 29 29 30 30 31 32 32 32 32
24 23 22 23 23 22 22 23 23 22 21 20 19 16 14 13 14 15 16 17 18 18 17 15 12 9 7 6 5 5 5 3 2 2 2 3 5 6 6 6 7 7 7 6 7 8 8 8 9 10 10 11 13 14 15 15 15 15 15 16 17 18 19 20 21 22 22 23 25 26 27 28 28 28 28 28 28 29 30 30 31 32 33 34 34
24 24 24 25 25 24 23 24 25 24 23 20 19 17 14 13 15 17 18 19 19 19 18 15 13 10 8 7 6 6 6 5 3 3 3 4 6 7 7 7 7 7 7 7 7 7 8 8 8 9 9 9 11 13 14 15 15 14 15 16 17 18 18 19 20 20 21 22 23 25 26 26 26 27 27 28 28 28 28 29 31 32 32 33 34
23 24 24 25 26 26 26 26 26 25 22 20 18 15 13 14 16 17 18 20 20 19 18 15 13 11 9 8 8 7 7 6 4 4 4 5 7 8 8 7 7 7 7 7 6 7 7 7 8 8 8 8 9 11 13 14 14 14 14 15 16 17 17 18 19 19 19 20 22 23 24 24 25 25 26 27 27 27 27 27 28 30 31 33 34
23 24 25 26 27 27 26 25 25 24 21 19 17 14 12 13 16 17 18 20 20 19 18 15 13 12 10 9 9 9 9 7 6 5 6 7 8 9 9 9 8 7 7 7 6 6 6 7 7 6 7 7 7 9 10 12 13 13 13 14 15 16 16 16 18 18 18 19 20 21 22 22 22 22 23 25 25 25 26 25 25 28 31 32 32
23 28 30 28 26 25 26 26 25 24 21 18 16 13 11 13 16 17 19 20 20 19 17 15 14 12 11 11 11 11 10 8 7 7 7 8 9 10 10 9 9 8 8 7 7 6 5 6 6 5 6 6 6 7 8 10 11 11 12 13 14 14 14 15 15 16 17 17 18 19 20 20 21 21 21 23 22 23 25 24 25 28 29 28 30
24 31 35 31 25 24 27 28 26 24 20 18 16 14 12 13 16 19 21 21 20 19 17 16 14 13 12 12 12 12 11 9 8 8 8 9 10 11 11 10 9 9 8 7 7 6 5 6 6 5 5 5 5 6 6 8 9 10 11 12 12 13 13 13 14 14 15 15 16 18 19 20 20 20 20 21 21 23 24 24 26 29 28 27 28
25 30 36 31 24 23 26 28 26 24 21 18 16 14 13 15 18 20 22 22 20 19 17 16 14 13 13 13 13 12 11 10 9 9 10 11 11 11 11 11 10 9 8 7 7 6 6 6 6 6 5 5 5 5 5 6 7 8 9 10 11 12 12 12 12 12 13 14 14 16 17 18 19 19 20 20 21 22 24 25 27 29 29 29 29
27 30 37 35 27 24 25 27 26 25 21 17 15 14 14 17 19 20 21 20 19 18 17 16 15 14 14 13 13 12 11 10 10 11 11 12 12 12 11 11 10 9 8 8 7 7 6 6 6 6 5 5 5 5 5 5 5 6 8 9 10 10 11 11 12 12 12 12 13 14 15 16 17 17 18 19 20 22 23 25 27 28 28 29 28
29 30 38 39 32 26 24 24 25 24 21 17 16 15 15 19 20 19 20 19 18 17 16 16 15 16 15 14 13 12 12 11 11 12 13 14 14 13 12 11 10 9 9 8 7 7 7 6 6 6 6 5 5 5 4 4 3 4 6 7 7 8 9 10 11 10 10 10 11 12 13 14 15 16 17 19 19 21 22 23 24 26 26 27 27
31 32 35 35 33 29 24 20 21 22 20 17 16 16 17 21 21 20 20 19 17 15 15 15 16 16 16 15 14 13 13 12 12 13 15 15 15 14 12 11 10 9 9 8 7 7 7 7 6 6 6 5 5 5 4 3 2 3 5 5 4 6 8 9 9 9 9 9 10 11 12 13 14 15 16 18 18 20 21 22 23 24 24 25 26
32 32 31 31 32 30 23 19 21 22 20 17 17 18 21 23 21 20 20 18 16 15 14 14 16 17 16 16 15 14 13 12 13 14 16 16 16 15 13 11 10 8 8 8 7 7 7 7 7 6 6 5 5 5 4 3 1 1 3 3 3 5 7 7 8 8 8 9 9 10 11 12 13 14 15 16 17 18 19 21 22 23 23 24 25
30 30 29 31 31 27 22 23 23 21 19 18 19 21 24 23 21 20 19 18 17 15 14 15 17 18 17 17 16 15 14 14 14 15 16 16 16 15 13 12 10 9 8 7 7 7 7 7 7 6 6 6 5 5 4 3 2 2 2 2 3 4 6 6 7 7 7 7 7 8 9 10 12 13 14 15 16 16 17 19 21 21 22 22 22
29 29 30 32 30 23 23 25 21 17 17 20 21 22 24 23 22 20 19 19 17 15 13 15 17 18 18 18 18 17 16 16 15 15 16 17 16 15 14 12 11 10 8 7 7 7 7 7 7 6 6 6 6 6 5 4 4 3 2 2 3 4 4 5 5 5 5 6 6 7 8 9 11 12 13 13 14 15 16 17 18 19 20 20 20
28 29 30 31 28 24 25 24 20 16 18 21 22 23 24 23 22 22 21 20 18 15 13 15 17 19 20 20 19 19 18 18 17 16 16 16 16 15 14 13 12 10 9 8 7 7 6 6 7 7 7 7 6 6 6 5 5 4 3 3 3 3 3 3 4 4 4 5 6 6 7 9 10 11 11 12 13 14 14 15 16 17 18 18 19
26 28 30 31 29 27 26 23 19 17 20 21 23 25 25 23 23 23 22 20 18 16 14 14 17 19 21 21 20 20 19 19 18 18 17 16 16 15 14 13 12 11 9 9 8 7 6 6 6 7 7 8 7 7 7 6 6 5 4 3 3 3 3 2 2 2 3 4 4 5 6 7 9 9 10 12 13 13 14 13 14 14 15 16 17
25 27 30 32 31 28 25 22 20 19 19 19 21 23 23 23 23 23 23 21 19 16 14 14 16 20 22 22 21 21 21 21 20 19 18 18 17 16 15 14 13 11 10 9 8 7 7 6 7 8 8 8 8 7 7 7 6 5 4 4 3 3 2 2 2 1 2 2 3 4 5 6 7 8 9 11 12 12 13 13 13 13 13 14 14
25 27 29 30 28 25 23 21 20 19 18 19 21 22 22 22 22 22 22 21 19 16 14 15 17 20 23 23 22 21 21 21 21 21 20 19 18 17 16 15 14 12 11 10 9 7 6 6 7 8 8 8 8 7 7 6 6 5 5 4 3 3 2 2 2 1 0 1 2 3 4 5 6 7 8 10 11 11 12 12 13 13 14 13 12
25 27 27 27 26 24 21 19 17 17 19 20 21 22 22 21 21 20 19 18 16 13 13 14 16 19 22 23 23 23 23 23 23 23 21 20 19 18 16 15 14 13 12 11 10 8 7 6 7 8 9 8 7 7 7 6 6 6 5 4 4 3 3 2 2 2 1 1 2 3 4 5 6 6 7 8 9 10 10 11 12 12 13 14 13
23 25 25 25 24 22 19 17 17 17 18 18 19 20 20 19 19 19 18 15 12 9 8 10 12 15 19 22 23 24 23 22 22 22 20 19 18 16 14 13 13 13 12 11 10 9 8 7 7 8 8 8 7 7 6 6 6 5 5 4 4 3 3 3 3 3 3 2 2 3 4 5 5 6 6 7 8 9 9 10 11 12 13 13 12
20 23 23 23 23 21 19 18 18 18 18 18 20 21 21 20 20 20 18 17 13 8 7 7 8 11 16 20 21 21 18 16 16 19 19 19 18 15 11 10 10 12 13 12 11 11 9 8 7 8 8 8 8 7 7 7 6 6 5 5 5 4 4 4 4 4 4 3 3 4 4 5 5 6 6 6 7 8 8 9 10 11 12 12 11
18 21 22 22 22 20 18 18 18 18 18 19 21 21 21 22 22 20 19 19 15 10 7 7 8 10 14 17 19 20 18 15 14 17 18 19 18 16 13 11 12 13 13 13 13 12 11 10 9 8 9 9 9 8 8 8 7 7 6 6 6 5 5 5 5 5 5 4 4 5 5 5 5 5 6 6 6 7 8 9 9 10 10 11 11
15 18 19 20 19 18 17 17 18 18 19 20 21 20 19 20 22 22 21 19 16 12 9 9 10 12 14 16 17 19 19 17 16 17 18 18 18 17 15 14 13 13 14 14 14 14 12 11 10 9 9 9 9 9 9 8 8 8 8 7 7 7 6 6 6 6 6 5 5 5 6 6 6 6 6 7 7 7 7 8 8 9 9 10 11
11 13 14 16 17 17 17 16 17 18 18 19 20 20 20 20 21 21 20 18 16 15 13 12 13 14 16 17 18 18 18 17 17 18 19 19 19 19 17 16 15 15 16 17 17 16 14 12 11 10 10 10 10 10 10 9 9 9 9 8 8 8 8 8 7 7 7 7 6 6 7 7 7 7 7 8 7 8 8 8 8 8 9 9 10
9 10 10 12 13 15 16 16 16 17 18 18 18 18 19 19 20 21 21 19 17 15 14 14 15 17 18 18 19 19 19 18 18 19 20 20 20 20 19 18 18 18 18 19 18 17 16 14 12 12 11 11 11 11 11 10 10 10 10 9 9 9 9 9 9 9 9 8 8 8 8 8 8 8 8 9 9 9 9 9 9 9 9 9 10
8 9 9 10 11 12 13 14 15 16 18 19 19 18 16 16 17 20 22 21 17 13 12 13 14 17 18 19 20 20 19 19 19 20 20 21 21 22 22 22 21 21 21 20 20 19 17 15 14 13 12 12 12 12 11 10 11 11 10 10 10 10 10 10 10 10 10 10 10 9 9 9 9 9 9 10 10 10 10 10 10 10 9 9 10
7 8 9 10 11 11 12 12 13 15 17 19 20 19 18 16 16 16 18 19 16 13 13 13 14 16 18 20 21 20 19 20 20 21 21 22 23 24 24 23 22 22 21 21 20 20 18 17 15 14 13 12 11 11 10 10 11 11 10 10 10 11 11 11 11 11 11 11 11 11 11 10 11 11 11 11 11 12 12 11 11 11 10 10 11
6 7 9 10 12 13 13 12 12 13 16 18 20 21 20 20 18 17 17 17 15 14 13 14 14 16 19 21 22 22 21 21 21 21 21 22 23 25 25 24 22 22 21 21 21 20 19 18 16 15 14 13 12 11 10 10 10 10 10 10 11 11 11 11 11 12 12 12 11 12 12 12 12 13 13 13 13 13 13 13 13 13 13 12 12
5 5 6 8 11 14 15 14 13 13 14 16 18 19 20 20 21 20 20 20 17 15 14 14 15 17 19 21 22 23 23 23 23 22 22 24 25 26 26 24 22 21 21 20 20 19 19 19 17 15 15 14 12 12 11 11 11 10 10 10 10 10 11 12 12 12 12 12 12 12 12 13 13 13 14 15 15 15 15 15 15 15 15 14 14
5 5 5 7 9 12 14 14 14 13 14 14 16 17 18 19 20 21 22 23 20 16 15 15 16 17 18 21 22 23 24 24 24 24 24 24 24 23 22 21 20 19 19 19 19 19 19 19 18 16 15 15 13 12 12 12 12 11 11 11 11 11 11 12 12 12 12 12 12 12 12 13 13 14 15 15 15 15 16 16 16 17 17 17 17
5 6 6 7 8 10 12 14 14 14 14 14 14 15 16 17 17 18 21 22 20 17 15 15 15 15 18 20 21 22 23 24 24 23 22 21 20 19 19 19 18 17 17 17 18 19 19 19 18 17 16 15 14 13 12 12 12 12 12 12 12 12 12 12 12 12 12 12 12 13 13 13 14 15 16 16 15 15 16 17 17 18 18 18 19
6 7 8 8 9 10 12 14 15 14 13 13 13 14 15 15 15 17 19 20 19 17 16 15 14 14 16 19 19 19 20 20 21 21 20 19 18 17 16 15 14 14 14 14 15 16 17 18 18 18 17 16 15 14 13 13 13 13 13 13 13 13 13 13 12 12 12 13 13 14 14 14 14 15 16 17 17 17 18 19 19 19 20 20 20
6 7 9 10 10 11 12 13 14 15 14 13 12 12 13 15 16 16 17 17 17 16 15 15 14 14 17 19 18 18 18 18 18 18 18 17 16 15 14 13 12 12 13 13 13 15 16 17 18 18 18 17 16 15 14 14 14 14 14 14 14 15 14 14 14 13 14 14 15 14 14 14 14 15 16 16 17 18 19 20 20 21 21 21 21
6 7 8 10 11 12 12 13 14 15 16 15 11 10 12 14 16 17 16 15 16 16 16 16 15 15 17 19 19 18 18 18 19 20 20 19 18 17 15 14 13 13 13 13 13 14 16 17 18 18 18 18 17 16 15 16 16 16 16 16 16 16 16 17 16 16 15 15 15 14 14 14 14 15 16 16 16 18 19 20 20 21 21 22 22
6 7 8 10 12 13 13 13 13 14 17 17 13 9 9 12 16 18 16 15 16 17 17 16 14 14 15 17 17 17 17 17 17 19 21 22 21 20 18 16 15 14 14 14 13 14 15 16 16 17 17 18 17 16 16 16 16 17 18 18 18 19 19 18 18 16 16 16 16 15 15 16 16 17 18 18 18 19 20 20 20 20 21 21 22
8 7 7 9 11 12 13 13 13 13 16 18 15 10 9 11 15 17 16 15 16 17 16 13 12 12 13 14 14 14 13 13 12 14 15 17 18 18 17 16 14 14 14 14 14 13 14 14 15 16 16 17 17 16 16 16 17 17 18 19 20 21 21 20 18 17 17 17 18 18 18 19 20 20 21 21 22 23 23 23 23 22 22 22 23
9 8 8 9 10 11 12 13 12 12 15 17 17 13 11 12 15 16 16 15 16 16 14 12 11 10 11 11 11 11 11 11 10 9 9 10 11 12 13 13 13 14 14 14 13 13 13 14 14 14 15 15 16 16 16 17 18 19 20 21 22 22 22 21 20 20 19 20 20 21 22 22 23 23 23 24 25 25 26 25 25 25 25 25 25
8 8 8 9 10 10 11 11 11 11 13 15 16 14 13 14 15 16 16 16 16 15 13 11 10 9 9 10 12 12 12 11 11 10 10 10 11 12 13 13 13 13 13 12 11 11 12 12 13 13 13 13 15 16 17 19 20 21 22 23 23 23 23 23 23 23 23 23 23 24 25 25 26 26 25 25 26 26 27 27 26 26 26 26 26
6 6 6 7 9 10 10 10 9 9 10 13 14 13 13 14 15 15 15 16 15 14 12 10 9 9 9 10 11 11 10 10 9 9 10 10 10 10 10 11 11 10 10 9 10 10 9 9 9 9 9 10 12 14 16 18 20 22 23 25 26 25 25 25 25 25 25 25 25 26 26 27 28 28 27 27 27 27 28 28 28 28 28 28 28
5 5 6 6 8 9 8 7 7 7 8 10 12 13 14 15 15 15 15 15 13 12 11 10 9 8 8 7 7 7 6 6 5 5 6 6 5 6 7 8 9 8 8 7 7 7 6 6 6 7 8 10 12 13 15 17 19 21 23 24 26 26 26 26 26 26 26 26 27 27 28 29 29 29 28 28 28 29 30 31 31 31 31 31 32
5 5 6 6 7 7 7 7 8 8 8 10 13 14 15 16 15 15 16 15 14 12 11 10 10 10 9 9 9 9 8 8 7 5 4 5 6 7 8 8 8 7 7 6 6 7 7 8 8 9 11 12 13 15 16 17 18 20 20 21 21 22 23 24 25 25 26 27 27 28 29 29 29 29 29 30 31 32 32 33 33 33 34 35 36
5 5 6 6 6 6 7 9 9 10 10 13 15 16 16 16 17 17 17 15 13 12 12 12 12 11 11 11 11 11 10 10 10 9 9 9 8 8 8 7 7 7 8 8 9 10 10 10 10 11 12 13 14 15 16 17 18 19 20 20 20 20 21 22 23 24 25 27 28 28 29 30 30 31 32 32 33 34 34 33 34 34 35 36 38
Wind_Direction
201 196 195 200 203 204 203 202 199 191 185 184 189 202 213 218 217 221 246 269 249 217 202 183 167 140 134 134 121 103 83 75 70 63 58 62 66 64 62 59 55 62 68 69 71 68 67 69 69 67 66 65 67 65 64 63 60 59 57 56 55 53 56 64 66 61 54 50 47 40 36 37 36 34 33 30 29 30 33 34 32 32 31 27 24
203 198 194 197 200 203 202 195 190 186 182 184 192 206 215 213 214 228 251 262 232 213 205 188 169 145 140 138 123 104 82 72 69 63 62 67 70 68 65 64 64 70 76 78 76 73 72 74 73 71 69 68 69 68 66 64 61 59 57 54 54 53 53 58 62 60 54 50 49 46 41 38 36 34 34 33 31 31 33 34 33 33 32 29 26
202 196 193 196 200 204 200 189 186 186 183 187 196 207 214 212 215 236 255 251 220 211 204 191 172 150 143 139 125 106 79 69 68 65 66 71 72 70 71 72 73 78 83 83 81 79 78 78 76 73 71 71 71 69 67 64 62 59 57 53 51 51 52 55 59 59 55 50 48 47 46 44 41 37 36 37 36 35 36 36 36 35 33 31 29
201 198 196 197 199 203 199 189 188 188 186 193 202 207 213 213 217 236 247 234 219 212 201 188 171 150 145 142 128 107 79 67 67 67 71 76 77 76 77 79 82 86 89 88 87 86 83 82 80 76 73 73 73 71 67 66 64 61 58 54 51 50 52 54 58 60 59 55 51 47 46 46 45 42 41 42 41 39 40 39 38 38 36 34 31
201 201 200 198 199 200 198 192 191 191 190 195 203 208 211 214 220 233 238 225 216 215 205 187 167 149 144 144 132 109 83 67 64 69 78 82 83 83 83 87 89 91 91 91 91 90 88 86 84 80 77 76 76 74 69 67 65 62 59 55 52 52 53 55 56 58 58 57 54 50 47 46 44 42 42 44 43 42 43 42 40 40 38 35 32
203 202 202 201 199 198 197 195 193 192 194 197 203 208 212 215 221 228 230 221 214 214 207 190 169 152 146 148 139 115 92 71 62 69 83 90 93 91 90 93 95 96 96 96 95 93 92 91 87 83 78 75 75 73 69 66 64 62 60 57 55 55 56 56 56 56 56 56 53 50 48 47 45 42 40 42 42 41 43 44 41 41 41 37 33
206 205 203 199 198 198 198 197 195 194 196 199 203 208 212 216 221 226 226 218 213 212 206 192 174 161 156 159 153 133 107 78 64 74 92 99 104 103 100 101 100 102 103 101 99 97 94 93 89 84 76 72 70 68 65 62 60 60 58 56 56 57 58 57 56 56 55 55 53 50 48 46 45 44 42 42 43 41 43 44 41 41 41 38 35
207 207 203 195 196 200 199 198 197 195 197 200 204 208 213 217 221 225 224 215 212 211 207 196 181 171 168 171 169 156 136 93 65 81 108 113 116 116 114 111 106 107 109 108 104 98 94 91 88 84 77 71 66 63 61 59 57 57 55 53 53 55 57 57 56 55 54 53 52 50 48 45 44 43 41 41 42 41 41 44 43 42 42 38 34
203 207 205 195 195 200 200 197 195 196 199 202 204 207 212 219 222 222 220 214 208 207 204 196 185 181 179 180 182 174 161 144 90 103 138 130 127 129 127 121 115 114 113 113 109 101 96 92 88 84 78 71 65 59 58 58 58 57 54 52 52 52 54 55 55 55 53 53 53 51 48 46 44 42 39 39 40 40 40 42 44 45 45 41 36
201 205 205 199 198 200 199 195 194 197 201 201 201 206 214 220 222 221 218 212 207 204 199 192 187 187 189 191 191 190 189 194 178 152 166 150 137 137 138 130 125 124 123 118 114 109 102 95 89 85 77 70 64 58 54 54 57 58 56 53 52 52 53 55 55 55 53 53 53 51 50 48 46 43 41 40 40 41 40 41 43 44 45 44 40
201 203 204 203 204 202 198 196 195 196 199 199 200 208 218 223 222 219 215 210 206 202 196 192 189 190 196 200 200 205 210 211 206 188 178 165 150 143 143 140 136 136 134 127 122 120 116 105 97 90 80 71 64 57 53 51 52 55 56 55 53 53 54 56 57 56 55 54 53 52 51 49 47 45 42 41 41 41 40 40 41 42 43 43 41
201 203 205 205 205 201 199 198 196 196 198 200 204 214 223 224 218 213 210 208 205 200 195 193 194 195 199 204 205 211 217 216 211 199 190 179 163 153 149 149 149 149 147 141 133 128 126 118 110 104 91 75 65 58 53 49 48 50 53 55 54 53 54 57 58 58 58 57 54 52 51 49 46 44 41 41 41 42 41 40 41 44 43 42 41
202 204 207 207 205 201 200 200 198 197 199 201 209 221 227 222 213 206 204 205 204 199 195 194 198 201 204 208 210 214 216 215 210 202 198 189 173 163 158 158 160 160 157 153 142 134 132 128 120 113 101 84 69 61 53 49 47 47 51 55 55 53 54 57 59 60 59 58 55 52 51 50 47 43 41 41 41 41 42 41 43 46 45 43 41
207 208 207 207 205 202 201 203 203 201 201 204 215 229 229 216 207 201 201 203 201 197 196 198 202 206 210 212 214 215 215 213 210 204 203 195 180 170 164 163 166 168 166 163 152 141 138 135 129 121 112 99 80 67 57 49 47 46 49 55 57 55 54 56 59 60 59 58 55 53 51 50 48 44 41 41 41 42 44 42 43 47 46 44 42
217 212 205 205 210 209 206 206 205 202 202 207 220 233 228 209 201 198 199 199 198 197 199 203 207 210 214 216 215 213 214 213 209 205 205 197 185 174 168 167 171 173 174 170 160 154 149 144 144 136 123 115 98 81 64 51 47 47 50 55 59 58 55 56 59 60 60 58 54 52 50 48 47 44 41 41 40 42 45 44 44 48 47 43 41
219 213 204 201 208 213 210 207 204 202 206 214 226 237 230 208 198 197 196 195 196 197 201 206 211 216 218 217 214 213 214 214 209 207 205 197 187 178 170 170 174 177 178 176 169 167 164 158 159 155 139 129 114 96 77 56 47 47 51 54 59 61 58 57 58 60 61 59 54 51 48 45 44 42 40 39 37 40 44 43 44 47 45 43 40
216 213 205 202 209 213 210 209 207 205 211 220 232 242 234 211 200 197 196 194 194 197 203 208 213 217 218 215 213 212 215 216 210 207 203 194 187 180 173 171 177 180 181 182 179 179 178 171 168 166 157 143 127 112 93 65 44 46 54 54 56 59 58 58 59 60 61 58 52 49 47 44 42 41 39 38 35 37 40 40 41 43 41 40 39
217 213 207 207 211 210 208 211 212 210 212 220 234 243 230 208 198 197 197 196 197 200 206 211 213 212 211 211 212 214 216 215 210 207 201 191 183 178 174 174 179 182 184 186 184 182 180 177 173 172 171 160 142 128 110 80 47 44 57 58 55 56 57 58 59 57 56 53 49 48 45 42 41 41 40 39 36 35 38 38 39 40 38 37 36
222 219 212 207 205 203 206 212 214 212 211 219 236 241 219 198 193 195 196 197 201 205 208 212 211 206 203 205 209 213 213 210 209 207 198 189 182 175 172 176 181 183 186 187 186 183 179 179 180 177 178 176 158 143 128 98 59 49 60 61 55 55 57 58 58 53 50 49 47 47 44 40 39 39 39 39 36 35 37 38 38 40 39 37 35
225 222 216 210 205 203 204 209 215 216 216 224 234 227 203 192 192 194 195 196 201 206 208 210 208 204 203 202 204 208 207 204 207 207 197 189 183 174 169 175 181 184 187 186 187 190 186 184 188 185 184 186 172 157 146 122 79 61 70 68 59 61 63 61 61 58 54 53 53 50 46 40 38 37 37 37 36 35 37 37 37 38 38 37 36
227 220 217 215 209 202 201 209 219 218 216 222 223 207 193 191 192 193 193 193 197 202 206 207 206 205 206 204 201 203 202 201 207 207 198 190 184 174 167 171 177 182 189 189 189 197 198 196 195 191 190 192 183 172 164 156 141 96 93 94 85 78 71 63 61 58 51 49 50 48 46 41 38 37 36 35 35 35 36 37 36 35 35 35 35
226 216 213 212 206 202 209 217 214 205 205 213 211 198 191 192 195 196 194 193 197 202 205 206 206 206 206 204 202 200 198 198 205 207 201 192 184 175 169 172 176 179 186 192 195 198 199 197 195 194 193 194 189 183 180 180 184 164 127 120 102 83 74 66 61 55 46 44 45 45 48 47 40 37 35 33 33 34 35 35 35 34 33 33 33
220 213 210 208 205 210 221 214 193 183 201 209 203 195 192 191 194 196 194 193 197 204 209 210 208 206 206 205 202 200 197 195 198 203 201 194 186 178 174 175 177 178 180 188 196 197 195 195 196 197 195 192 186 182 180 183 182 171 150 137 115 89 77 68 62 56 47 43 43 43 47 49 45 39 35 31 31 32 34 34 33 31 31 30 30
219 215 211 207 209 218 219 202 178 179 205 206 197 194 194 192 193 193 192 193 197 203 211 215 213 209 207 206 203 200 196 194 193 195 197 195 189 183 180 179 180 181 181 183 189 194 196 196 198 198 196 192 185 179 177 177 174 167 159 152 136 107 88 74 63 57 48 39 36 36 40 45 44 39 33 30 27 27 29 30 29 28 25 25 26
220 216 211 210 215 215 205 191 182 193 205 204 198 196 193 192 192 192 192 195 197 200 208 218 219 214 210 208 207 202 197 194 192 191 192 193 191 188 186 184 183 184 185 186 188 190 189 188 189 191 192 190 184 178 176 173 169 167 164 157 147 127 107 95 83 65 48 32 27 30 34 38 39 35 31 27 23 20 20 22 24 23 20 19 19
220 217 213 214 216 208 195 189 193 200 205 206 203 199 195 194 195 194 194 197 200 202 208 216 221 219 214 211 210 207 200 196 194 194 194 194 192 191 191 189 186 187 190 192 193 190 184 181 183 185 187 186 181 177 174 171 167 168 168 162 155 146 134 132 134 109 59 30 22 21 25 31 34 31 27 25 21 16 12 13 14 14 16 20 17
218 218 216 215 211 202 196 198 199 201 205 204 200 198 197 198 200 198 198 199 201 205 212 217 220 220 216 213 211 209 206 201 198 198 199 197 195 194 193 192 191 191 194 197 198 197 191 186 184 185 185 183 178 175 174 171 170 173 174 171 166 161 164 173 179 176 139 24 10 6 12 21 27 27 24 22 19 15 12 13 11 7 9 17 17
207 214 216 213 207 201 202 203 202 206 208 201 195 196 196 198 201 201 201 202 202 206 216 224 225 222 218 215 213 210 209 207 207 207 206 203 201 198 196 195 194 195 198 201 203 203 203 198 192 187 186 184 180 178 177 176 179 182 181 179 180 183 193 204 211 222 234 295 344 351 359 5 10 15 17 16 13 12 14 14 11 8 9 11 9
195 207 209 208 206 204 203 201 203 211 211 200 193 195 197 200 201 199 199 203 206 212 223 230 233 229 223 219 216 214 214 216 216 215 214 211 209 206 202 201 200 199 201 205 210 213 215 212 202 193 190 189 187 187 188 187 191 196 195 194 195 202 214 221 231 242 250 274 313 329 341 348 352 358 3 4 2 4 10 10 8 8 10 9 3
191 201 203 204 206 206 202 200 203 211 212 201 193 194 199 203 202 201 204 206 206 213 224 226 234 237 230 226 223 223 228 232 227 220 217 215 214 211 208 208 208 205 204 206 212 218 223 223 215 204 199 196 195 197 201 203 205 211 215 215 214 218 223 229 236 243 251 269 290 302 316 326 332 339 345 348 349 352 358 1 2 3 3 3 359
193 199 203 206 208 205 202 201 201 205 206 201 195 195 199 203 203 205 211 213 211 215 225 227 228 233 233 232 230 230 232 233 226 222 220 218 215 211 208 208 210 209 209 212 217 222 227 229 226 219 212 207 203 205 210 213 216 222 228 231 232 233 235 239 243 248 255 268 280 289 298 305 312 321 327 333 340 343 344 348 354 355 353 353 352
199 203 206 210 209 205 204 204 201 199 199 198 199 201 202 204 205 208 213 217 217 218 222 225 224 225 226 227 228 229 228 223 218 218 220 220 218 214 211 213 214 213 212 216 222 227 231 233 233 229 223 216 212 212 215 219 223 227 233 238 243 246 248 250 251 255 260 266 275 284 290 295 300 307 313 321 328 332 334 335 339 343 345 346 345
206 208 210 210 208 205 206 207 205 202 199 197 199 203 204 206 209 210 210 211 213 217 222 226 225 223 219 216 216 220 222 219 215 215 216 218 219 217 214 216 218 217 215 218 223 226 229 230 232 232 228 222 218 217 219 222 226 231 236 241 247 252 256 258 259 262 265 267 272 278 282 287 293 298 303 310 314 319 323 325 326 331 337 339 338
208 215 217 215 212 211 211 210 209 208 206 202 201 204 206 208 214 216 210 204 205 216 226 229 227 224 219 212 207 207 209 211 212 213 214 216 218 218 218 219 220 220 219 220 223 227 228 229 230 232 231 227 224 223 224 226 230 235 238 241 247 252 256 259 260 263 267 270 272 275 278 281 286 292 296 301 304 306 311 315 317 319 323 326 329
208 214 215 215 216 218 219 215 211 211 209 205 203 206 209 212 219 222 218 212 214 225 236 237 233 227 220 213 206 202 201 202 206 209 213 216 217 217 218 220 222 223 223 223 224 226 228 229 230 231 232 232 230 229 230 231 234 239 242 244 248 252 256 260 262 263 266 269 271 273 275 277 282 286 289 292 295 297 299 303 305 306 310 313 318
204 207 205 202 202 206 211 211 208 209 208 206 206 211 214 218 223 222 216 214 220 231 240 242 236 227 220 214 208 202 199 199 203 207 211 214 217 218 220 223 225 226 227 227 227 228 230 232 233 233 233 232 231 232 235 237 239 242 245 247 250 254 258 261 263 263 265 268 270 272 274 276 280 284 286 288 291 292 291 292 293 295 298 300 304
202 208 207 199 192 192 197 199 201 207 210 211 214 218 222 225 225 216 206 206 214 224 232 236 235 228 221 215 209 204 200 200 203 206 209 212 215 219 223 226 228 229 230 232 233 234 237 238 238 237 236 234 234 236 239 242 244 247 248 251 255 258 261 263 264 265 267 269 270 272 275 277 279 282 284 287 288 289 289 290 290 290 292 293 295
187 201 212 207 198 194 195 197 201 208 213 217 223 226 229 232 231 222 213 211 215 221 225 229 232 231 225 218 212 206 202 201 202 205 208 210 214 218 222 226 227 230 233 236 239 241 244 245 244 241 239 239 241 244 247 248 249 251 254 257 260 263 266 267 268 269 271 273 275 277 278 280 281 283 285 285 287 287 287 287 287 287 289 290 291
182 186 197 205 204 201 200 204 208 212 216 221 226 229 233 235 234 229 223 218 219 223 225 225 228 231 227 221 215 209 205 205 205 205 207 210 213 216 221 224 227 231 235 239 243 245 246 247 246 243 241 241 244 249 254 255 254 255 258 261 265 269 272 274 275 276 275 277 280 282 283 283 284 284 284 285 288 289 287 286 285 286 286 286 287
205 205 201 202 206 208 209 212 216 220 222 225 228 232 235 236 236 236 230 222 221 227 230 227 228 229 226 221 217 214 213 213 211 209 210 212 214 216 220 224 230 236 241 245 248 248 247 247 246 244 242 243 245 250 256 259 259 259 260 261 266 271 274 277 277 277 278 280 283 286 287 288 288 287 286 286 288 288 288 288 288 287 286 285 284
212 219 219 215 212 214 217 219 221 222 225 229 232 233 234 237 241 241 234 225 225 233 234 228 226 227 223 218 217 218 219 220 220 218 220 222 223 224 227 233 241 249 255 258 258 253 248 247 247 245 243 243 246 251 257 260 261 262 262 263 268 272 276 277 277 277 280 283 284 286 289 290 291 290 288 288 288 286 286 287 288 289 289 288 286
209 218 226 228 225 223 224 225 224 223 222 224 229 233 234 235 237 233 226 224 230 235 231 221 218 220 218 215 214 217 220 223 226 227 229 232 233 234 238 245 253 263 269 271 267 258 249 246 246 245 244 244 247 252 257 259 262 264 267 269 272 274 276 278 278 279 281 281 282 285 288 290 290 291 292 293 292 290 289 289 288 289 289 289 289
219 222 228 232 232 232 231 230 230 228 221 217 221 234 238 235 229 221 218 226 233 232 224 218 217 218 218 216 217 222 229 233 236 236 236 238 239 241 245 252 259 268 274 273 266 257 249 246 246 245 243 245 248 253 258 261 263 265 268 272 275 276 277 278 279 279 279 279 280 281 283 284 287 291 295 299 299 298 297 296 294 292 291 289 288
224 232 236 237 236 235 233 231 233 233 225 217 217 228 235 229 221 216 219 226 228 223 220 219 219 219 219 219 222 231 238 240 241 240 240 240 241 244 249 255 261 267 271 268 260 251 247 247 248 246 246 247 250 254 260 265 266 267 270 273 277 278 279 279 280 279 278 277 277 277 279 281 284 287 291 295 298 299 299 301 301 300 298 295 292
219 227 233 236 236 236 234 232 232 235 229 221 215 218 223 218 214 217 221 223 218 214 213 213 213 213 217 222 228 234 236 237 240 241 241 240 242 246 250 255 260 266 268 264 255 246 245 249 251 249 248 249 251 255 262 267 270 272 274 277 280 282 283 283 283 281 278 276 276 277 278 280 282 284 287 290 292 293 294 296 298 300 300 300 299
215 220 225 230 234 236 237 235 232 232 230 225 221 221 219 209 206 212 217 213 206 203 203 204 206 213 222 227 228 227 226 227 230 230 229 234 241 245 247 251 255 259 261 259 252 246 246 250 252 253 252 251 252 255 260 266 271 274 278 281 283 284 283 281 280 279 277 275 276 278 280 281 282 284 286 288 289 291 291 292 293 294 294 296 297
210 217 224 231 235 235 235 234 230 226 226 227 228 228 222 209 204 207 207 201 197 198 200 201 204 210 216 219 219 221 223 226 227 227 231 238 244 244 244 247 249 251 251 251 249 248 249 252 256 258 258 258 258 260 264 268 271 274 276 279 280 280 279 277 275 276 277 277 278 280 282 283 284 285 287 288 289 290 290 290 290 290 291 291 292
202 212 222 234 239 236 229 224 219 217 224 228 226 220 210 203 201 202 200 197 196 197 194 192 193 199 206 213 217 222 227 229 230 233 236 239 240 242 244 245 243 240 239 240 243 247 250 253 257 261 261 262 263 264 265 267 269 270 272 274 275 275 275 274 274 276 277 279 281 282 284 285 287 289 290 289 288 288 288 287 286 286 286 286 287
194 205 214 225 232 231 224 213 203 204 216 218 212 201 194 193 195 195 192 188 185 181 178 178 182 185 188 190 191 192 196 200 205 216 223 223 221 223 227 227 223 221 224 230 235 239 243 244 245 249 253 257 259 261 263 266 268 272 274 276 275 274 273 274 275 277 279 280 283 284 285 287 288 288 288 287 285 284 283 281 280 279 279 279 279
180 195 205 213 222 223 214 198 188 188 195 198 194 191 189 187 184 180 175 171 168 166 166 167 166 160 155 152 150 145 140 141 144 152 171 185 191 196 201 204 206 207 211 218 221 224 230 236 241 247 253 258 261 265 268 272 276 279 281 283 281 278 275 275 276 278 280 282 283 285 285 286 287 287 287 287 286 284 282 281 280 278 276 275 274
169 183 192 199 203 197 185 177 174 176 181 183 183 184 183 178 173 171 167 162 157 156 155 154 152 148 145 143 139 134 133 138 142 147 158 167 174 183 190 196 204 211 218 227 232 235 240 245 249 253 258 263 267 271 274 277 280 282 284 285 285 282 281 280 280 281 281 283 284 284 285 286 287 287 286 285 284 284 283 283 282 281 279 278 278
Height
1509 1511 1513 1516 1519 1521 1524 1526 1528 1530 1532 1535 1537 1539 1541 1544 1545 1547 1548 1548 1549 1551 1552 1553 1554 1554 1555 1555 1555 1555 1555 1555 1555 1555 1554 1554 1554 1554 1554 1554 1554 1554 1554 1554 1554 1554 1554 1553 1552 1552 1552 1552 1551 1551 1550 1550 1549 1548 1546 1545 1544 1543 1542 1541 1540 1539 1538 1536 1534 1532 1529 1526 1523 1521 1518 1515 1513 1510 1507 1505 1502 1499 1496 1493 1491
1508 1509 1512 1514 1517 1519 1522 1524 1527 1529 1531 1533 1536 1538 1540 1543 1544 1546 1547 1548 1549 1550 1551 1552 1553 1554 1555 1555 1555 1555 1555 1555 1555 1554 1554 1554 1554 1554 1554 1554 1555 1555 1555 1555 1554 1555 1554 1554 1554 1554 1554 1553 1553 1552 1552 1551 1550 1549 1548 1546 1545 1544 1543 1542 1540 1539 1538 1537 1535 1533 1530 1527 1525 1523 1520 1517 1514 1512 1509 1506 1503 1500 1498 1495 1493
1507 1508 1511 1513 1516 1518 1520 1523 1526 1528 1530 1532 1535 1537 1539 1542 1544 1545 1546 1547 1548 1549 1551 1552 1553 1554 1554 1555 1555 1555 1555 1555 1555 1554 1554 1554 1554 1554 1555 1555 1555 1555 1555 1555 1555 1555 1555 1555 1555 1555 1555 1554 1554 1553 1553 1552 1551 1550 1549 1548 1547 1546 1544 1543 1541 1540 1539 1538 1536 1534 1532 1530 1527 1525 1522 1519 1517 1514 1511 1508 1505 1503 1500 1498 1495
1505 1507 1509 1512 1514 1516 1519 1523 1525 1527 1529 1531 1533 1536 1538 1540 1543 1544 1545 1546 1547 1549 1550 1552 1553 1553 1554 1555 1555 1555 1555 1555 1555 1554 1555 1555 1555 1555 1555 1555 1555 1556 1556 1556 1556 1556 1556 1556 1556 1556 1556 1555 1555 1555 1554 1553 1552 1551 1550 1549 1548 1547 1545 1544 1543 1541 1541 1539 1537 1535 1533 1531 1529 1527 1524 1521 1518 1516 1513 1510 1508 1505 1503 1501 1498
1504 1505 1508 1510 1513 1515 1518 1521 1523 1526 1528 1530 1532 1535 1537 1539 1541 1542 1543 1545 1546 1548 1549 1551 1552 1553 1554 1554 1555 1555 1555 1555 1555 1555 1555 1555 1555 1555 1555 1555 1556 1556 1556 1556 1557 1557 1557 1557 1557 1557 1557 1556 1556 1556 1555 1555 1554 1552 1551 1550 1549 1548 1547 1545 1544 1543 1542 1540 1539 1537 1535 1532 1530 1528 1526 1522 1520 1518 1515 1513 1510 1508 1505 1503 1501
1502 1504 1507 1509 1511 1514 1517 1519 1522 1524 1527 1529 1531 1534 1536 1538 1539 1541 1542 1544 1545 1547 1549 1550 1551 1552 1553 1554 1555 1555 1555 1555 1555 1555 1555 1555 1555 1555 1555 1556 1556 1556 1556 1557 1557 1558 1558 1558 1558 1558 1557 1557 1557 1557 1556 1556 1555 1554 1552 1551 1550 1549 1548 1547 1545 1544 1543 1541 1540 1538 1536 1534 1532 1529 1527 1524 1522 1519 1517 1515 1512 1510 1507 1505 1503
1501 1503 1506 1509 1511 1513 1516 1518 1520 1523 1526 1528 1530 1532 1534 1536 1538 1539 1541 1543 1544 1546 1548 1549 1550 1551 1552 1553 1554 1555 1555 1555 1555 1555 1555 1555 1555 1555 1556 1556 1556 1557 1557 1557 1558 1558 1559 1559 1559 1558 1558 1558 1557 1557 1557 1556 1555 1554 1553 1552 1551 1550 1549 1548 1547 1545 1544 1542 1541 1539 1537 1535 1533 1531 1528 1526 1524 1521 1518 1516 1514 1512 1509 1507 1504
1500 1502 1505 1509 1512 1513 1515 1517 1519 1522 1525 1527 1529 1531 1533 1535 1536 1538 1540 1541 1543 1545 1547 1548 1549 1550 1552 1552 1553 1554 1554 1555 1555 1554 1555 1555 1555 1556 1556 1556 1557 1557 1558 1558 1558 1559 1559 1560 1560 1559 1559 1558 1558 1558 1557 1557 1556 1555 1554 1553 1552 1551 1549 1549 1548 1546 1545 1543 1542 1540 1538 1536 1534 1532 1530 1527 1525 1522 1520 1518 1516 1513 1511 1509 1507
1499 1501 1505 1509 1511 1512 1514 1516 1519 1521 1524 1526 1528 1530 1532 1534 1535 1537 1539 1540 1542 1544 1546 1547 1548 1549 1551 1552 1553 1553 1554 1554 1555 1554 1555 1555 1555 1556 1556 1557 1557 1558 1558 1559 1559 1560 1560 1560 1560 1560 1560 1559 1559 1558 1558 1557 1556 1555 1554 1553 1552 1551 1550 1549 1548 1547 1546 1544 1543 1541 1540 1537 1535 1533 1531 1528 1526 1525 1523 1521 1519 1516 1514 1512 1509
1498 1500 1504 1507 1509 1511 1513 1515 1518 1520 1522 1525 1527 1529 1531 1532 1534 1535 1537 1539 1541 1543 1545 1546 1548 1549 1550 1551 1552 1553 1553 1554 1554 1554 1555 1555 1555 1556 1556 1557 1558 1558 1559 1559 1560 1560 1560 1561 1561 1560 1560 1560 1559 1559 1558 1557 1557 1556 1555 1554 1553 1552 1551 1550 1549 1548 1547 1546 1544 1543 1541 1539 1537 1535 1533 1531 1530 1528 1526 1523 1521 1518 1516 1514 1511
1496 1499 1502 1504 1507 1509 1511 1514 1516 1519 1521 1523 1525 1527 1529 1531 1532 1534 1535 1537 1540 1542 1544 1546 1547 1548 1549 1550 1551 1552 1553 1553 1553 1554 1554 1555 1555 1556 1556 1557 1558 1559 1559 1560 1560 1561 1561 1561 1561 1561 1561 1561 1560 1560 1559 1558 1557 1556 1555 1554 1553 1552 1551 1551 1550 1549 1548 1547 1546 1544 1542 1541 1539 1537 1536 1534 1532 1529 1527 1525 1522 1520 1517 1515 1513
1495 1498 1500 1502 1505 1507 1509 1512 1514 1517 1519 1522 1524 1526 1527 1529 1530 1532 1534 1536 1538 1540 1543 1544 1546 1547 1548 1549 1550 1551 1551 1552 1553 1553 1554 1554 1555 1555 1556 1557 1558 1559 1560 1560 1561 1561 1561 1561 1562 1562 1562 1561 1561 1561 1560 1559 1558 1557 1556 1555 1554 1553 1552 1552 1551 1550 1549 1549 1547 1545 1544 1543 1541 1539 1537 1535 1533 1531 1529 1527 1524 1522 1520 1517 1515
1494 1496 1498 1501 1503 1505 1508 1510 1513 1516 1518 1520 1523 1524 1526 1527 1528 1530 1532 1535 1537 1539 1541 1543 1545 1546 1547 1548 1549 1550 1550 1551 1551 1552 1553 1554 1554 1555 1556 1557 1558 1559 1560 1560 1561 1561 1561 1562 1562 1562 1562 1562 1562 1561 1561 1560 1559 1558 1557 1556 1555 1554 1553 1553 1552 1551 1551 1550 1549 1547 1545 1544 1542 1541 1539 1537 1535 1533 1531 1529 1527 1525 1522 1520 1517
1493 1495 1498 1500 1502 1504 1507 1510 1512 1515 1517 1519 1521 1522 1524 1525 1526 1529 1531 1533 1536 1538 1540 1542 1544 1545 1546 1547 1547 1548 1549 1549 1550 1551 1551 1553 1554 1554 1555 1556 1557 1558 1559 1560 1561 1561 1561 1562 1562 1562 1562 1562 1562 1562 1562 1561 1560 1559 1558 1557 1556 1555 1554 1554 1553 1552 1551 1551 1550 1548 1547 1546 1544 1543 1541 1539 1537 1535 1533 1532 1530 1527 1525 1522 1520
1492 1494 1496 1498 1501 1503 1506 1509 1511 1513 1515 1517 1519 1521 1522 1523 1525 1527 1530 1532 1535 1537 1539 1541 1542 1543 1544 1545 1546 1546 1547 1548 1548 1549 1550 1551 1553 1554 1555 1556 1557 1558 1559 1560 1560 1561 1561 1561 1562 1562 1562 1562 1562 1562 1562 1562 1561 1560 1559 1557 1557 1556 1555 1555 1554 1553 1552 1551 1551 1550 1548 1547 1545 1544 1543 1541 1539 1537 1535 1534 1532 1529 1527 1525 1523
1489 1492 1493 1496 1499 1502 1504 1507 1509 1511 1513 1515 1517 1519 1520 1521 1523 1525 1528 1530 1533 1535 1537 1539 1540 1541 1542 1543 1544 1545 1546 1547 1547 1548 1549 1550 1551 1553 1554 1555 1556 1558 1559 1559 1560 1560 1560 1561 1561 1562 1562 1562 1562 1562 1562 1562 1561 1561 1559 1558 1558 1557 1556 1556 1555 1554 1553 1552 1552 1551 1549 1548 1546 1545 1544 1542 1541 1539 1537 1536 1534 1531 1529 1527 1525
1487 1489 1491 1494 1497 1500 1503 1505 1507 1509 1512 1514 1516 1517 1518 1519 1521 1524 1526 1529 1531 1533 1535 1536 1538 1539 1540 1542 1543 1544 1545 1546 1546 1547 1548 1549 1550 1552 1553 1554 1556 1557 1558 1559 1559 1560 1560 1560 1561 1561 1561 1561 1561 1561 1561 1561 1562 1561 1560 1559 1558 1558 1557 1556 1556 1555 1554 1553 1552 1551 1550 1549 1548 1547 1545 1544 1542 1540 1538 1537 1534 1532 1530 1528 1526
1485 1488 1490 1491 1495 1499 1501 1503 1505 1507 1510 1512 1514 1515 1516 1517 1520 1522 1525 1528 1530 1532 1533 1534 1536 1537 1538 1540 1541 1542 1544 1544 1545 1546 1547 1548 1549 1551 1552 1554 1555 1556 1557 1558 1559 1559 1559 1560 1560 1561 1561 1561 1561 1561 1561 1561 1561 1561 1560 1559 1559 1559 1558 1557 1556 1555 1555 1554 1553 1552 1551 1550 1549 1548 1546 1545 1543 1541 1539 1537 1535 1533 1532 1530 1527
1485 1486 1487 1489 1493 1497 1499 1501 1504 1506 1508 1511 1513 1513 1514 1516 1519 1522 1524 1527 1529 1531 1532 1533 1534 1535 1536 1538 1539 1541 1542 1543 1544 1545 1546 1547 1548 1550 1551 1553 1554 1556 1557 1557 1558 1558 1559 1559 1560 1560 1560 1560 1560 1560 1560 1560 1561 1561 1560 1560 1560 1559 1558 1557 1557 1556 1555 1555 1554 1553 1552 1551 1550 1549 1547 1546 1544 1542 1540 1539 1537 1535 1533 1531 1529
1483 1485 1487 1489 1492 1495 1497 1499 1502 1504 1507 1510 1510 1511 1512 1514 1517 1520 1522 1525 1527 1529 1530 1531 1532 1534 1535 1536 1538 1539 1540 1541 1543 1544 1545 1546 1547 1549 1550 1552 1553 1555 1556 1557 1557 1558 1558 1559 1559 1559 1559 1559 1559 1560 1560 1560 1560 1560 1560 1560 1560 1559 1558 1558 1557 1556 1556 1556 1555 1554 1553 1552 1551 1549 1548 1547 1545 1544 1542 1540 1538 1536 1535 1533 1531
1481 1484 1487 1489 1491 1493 1495 1496 1498 1502 1506 1508 1508 1508 1510 1513 1515 1517 1520 1523 1525 1527 1529 1530 1531 1532 1534 1535 1536 1538 1539 1540 1541 1543 1544 1545 1546 1548 1549 1551 1552 1554 1555 1556 1556 1557 1558 1558 1558 1558 1559 1559 1559 1559 1559 1559 1559 1559 1559 1559 1559 1559 1558 1558 1557 1556 1556 1556 1555 1554 1553 1552 1551 1550 1549 1548 1546 1545 1543 1541 1540 1538 1536 1535 1533
1479 1482 1485 1487 1489 1491 1493 1494 1496 1500 1503 1504 1505 1506 1509 1511 1514 1516 1518 1521 1523 1526 1527 1528 1529 1531 1532 1534 1535 1536 1538 1539 1540 1542 1543 1544 1545 1547 1548 1550 1551 1553 1554 1555 1556 1556 1557 1557 1557 1558 1558 1558 1558 1558 1558 1558 1558 1558 1558 1558 1558 1558 1558 1558 1557 1556 1556 1556 1555 1555 1554 1553 1552 1551 1550 1549 1547 1546 1544 1542 1541 1539 1538 1536 1534
1479 1481 1483 1486 1488 1490 1491 1493 1497 1500 1500 1501 1503 1505 1507 1510 1512 1514 1517 1519 1522 1524 1526 1526 1528 1529 1531 1532 1534 1535 1536 1538 1539 1540 1542 1543 1544 1546 1547 1549 1550 1552 1553 1554 1555 1555 1556 1556 1556 1556 1557 1557 1557 1557 1557 1557 1558 1558 1558 1558 1558 1558 1557 1557 1557 1556 1556 1556 1555 1555 1554 1553 1552 1551 1550 1549 1548 1547 1545 1543 1542 1540 1539 1537 1536
1478 1480 1483 1485 1487 1489 1491 1493 1497 1499 1498 1499 1501 1503 1505 1507 1510 1512 1515 1517 1520 1523 1524 1525 1526 1528 1529 1531 1532 1534 1535 1536 1538 1539 1541 1542 1543 1545 1546 1548 1549 1550 1551 1553 1554 1554 1555 1555 1555 1555 1556 1556 1556 1556 1557 1557 1557 1557 1557 1557 1557 1557 1557 1557 1557 1556 1556 1556 1555 1555 1554 1553 1552 1551 1550 1549 1548 1547 1546 1544 1543 1541 1540 1538 1537
1477 1479 1482 1485 1486 1488 1490 1493 1495 1496 1496 1498 1500 1501 1503 1505 1507 1510 1512 1515 1517 1520 1522 1524 1525 1527 1528 1529 1531 1532 1534 1535 1536 1538 1539 1541 1542 1544 1545 1547 1548 1549 1550 1551 1553 1553 1554 1554 1554 1554 1555 1555 1555 1556 1556 1556 1556 1556 1557 1557 1557 1557 1557 1557 1556 1556 1556 1555 1555 1554 1553 1552 1551 1550 1550 1549 1548 1547 1546 1545 1544 1542 1541 1539 1537
1476 1478 1481 1483 1485 1487 1490 1492 1493 1494 1495 1497 1500 1501 1503 1504 1506 1508 1510 1513 1515 1517 1519 1521 1523 1525 1527 1528 1530 1531 1533 1534 1535 1536 1538 1539 1541 1542 1544 1545 1547 1548 1549 1550 1551 1552 1553 1553 1553 1554 1554 1554 1555 1555 1555 1555 1555 1556 1556 1556 1556 1556 1556 1556 1556 1556 1555 1555 1554 1554 1553 1552 1551 1550 1549 1548 1548 1547 1546 1545 1544 1543 1541 1540 1539
1476 1478 1480 1482 1484 1487 1489 1490 1492 1493 1494 1496 1499 1501 1503 1504 1506 1508 1509 1511 1514 1516 1517 1518 1520 1523 1525 1527 1528 1530 1531 1532 1533 1534 1536 1537 1539 1541 1542 1544 1545 1546 1548 1549 1550 1551 1552 1552 1552 1553 1553 1554 1554 1554 1554 1554 1555 1555 1556 1556 1556 1556 1556 1556 1555 1555 1554 1554 1554 1553 1552 1551 1550 1549 1548 1548 1547 1546 1545 1544 1544 1543 1541 1540 1540
1476 1477 1479 1481 1483 1485 1487 1489 1490 1491 1493 1495 1497 1499 1501 1503 1505 1507 1509 1511 1513 1514 1515 1516 1518 1521 1523 1525 1527 1528 1530 1531 1531 1532 1534 1536 1537 1539 1541 1542 1543 1545 1546 1548 1549 1550 1550 1551 1551 1552 1553 1553 1553 1553 1553 1554 1554 1555 1555 1555 1555 1555 1555 1555 1555 1554 1554 1553 1553 1552 1552 1551 1550 1549 1548 1547 1547 1546 1545 1544 1543 1542 1541 1540 1539
1475 1477 1479 1481 1482 1484 1486 1488 1489 1490 1491 1494 1496 1499 1501 1503 1504 1506 1508 1510 1512 1513 1514 1515 1517 1519 1521 1523 1525 1526 1527 1528 1530 1531 1533 1535 1537 1538 1540 1541 1542 1544 1545 1547 1548 1549 1549 1550 1550 1551 1552 1552 1552 1552 1553 1553 1553 1554 1554 1554 1554 1554 1554 1554 1554 1554 1553 1553 1552 1552 1551 1551 1550 1549 1548 1547 1546 1545 1544 1543 1543 1542 1541 1540 1540
1474 1476 1478 1480 1481 1483 1485 1487 1488 1489 1491 1493 1495 1497 1499 1501 1503 1505 1507 1509 1511 1512 1513 1514 1515 1517 1519 1521 1523 1525 1526 1528 1530 1531 1533 1534 1536 1538 1540 1541 1542 1543 1544 1545 1547 1548 1548 1548 1549 1550 1550 1551 1551 1551 1552 1552 1552 1553 1553 1553 1553 1553 1553 1553 1553 1553 1552 1552 1552 1551 1551 1550 1549 1548 1547 1546 1545 1544 1543 1543 1542 1541 1540 1540 1539
1473 1475 1476 1478 1480 1482 1483 1485 1487 1489 1490 1492 1493 1495 1497 1500 1502 1504 1506 1508 1510 1511 1511 1512 1514 1515 1517 1519 1521 1523 1525 1527 1529 1531 1532 1533 1535 1537 1538 1540 1540 1541 1543 1544 1545 1546 1547 1547 1548 1548 1549 1550 1550 1550 1550 1551 1551 1552 1552 1552 1552 1552 1552 1552 1552 1552 1551 1551 1551 1550 1550 1550 1549 1548 1547 1546 1545 1544 1543 1542 1541 1541 1540 1539 1538
1472 1473 1475 1477 1479 1481 1482 1484 1485 1487 1489 1491 1493 1495 1497 1499 1501 1503 1505 1507 1508 1509 1510 1511 1512 1514 1515 1517 1519 1521 1523 1525 1527 1529 1531 1532 1534 1535 1537 1538 1539 1540 1541 1542 1543 1544 1545 1545 1546 1546 1547 1548 1548 1549 1549 1549 1550 1550 1550 1551 1551 1551 1551 1551 1550 1550 1550 1550 1549 1549 1549 1549 1548 1547 1546 1545 1544 1543 1542 1541 1541 1540 1539 1538 1538
1471 1472 1474 1476 1477 1479 1481 1482 1484 1486 1488 1490 1492 1494 1496 1497 1499 1501 1503 1505 1506 1508 1508 1509 1511 1512 1513 1515 1516 1518 1521 1523 1525 1527 1529 1531 1532 1534 1535 1536 1537 1538 1539 1540 1541 1542 1543 1543 1544 1544 1545 1546 1546 1547 1547 1547 1548 1548 1549 1549 1549 1549 1549 1549 1549 1549 1548 1548 1548 1548 1547 1547 1547 1546 1546 1545 1544 1543 1542 1541 1540 1539 1538 1537 1536
1470 1471 1473 1475 1476 1478 1479 1481 1482 1485 1487 1489 1491 1492 1494 1496 1498 1500 1502 1503 1504 1506 1507 1508 1509 1510 1512 1513 1514 1516 1518 1520 1523 1525 1527 1529 1531 1532 1534 1535 1535 1536 1536 1537 1538 1539 1540 1541 1542 1542 1543 1543 1544 1544 1545 1545 1546 1546 1547 1547 1547 1547 1547 1547 1547 1547 1547 1546 1546 1546 1546 1546 1545 1545 1544 1544 1543 1542 1541 1540 1539 1538 1537 1536 1535
1469 1470 1472 1473 1475 1476 1478 1479 1481 1483 1485 1488 1489 1491 1492 1494 1496 1498 1500 1502 1504 1505 1506 1507 1508 1509 1510 1512 1513 1514 1516 1518 1520 1523 1525 1527 1529 1530 1531 1532 1532 1533 1534 1534 1535 1536 1537 1538 1539 1539 1540 1541 1541 1542 1543 1543 1544 1544 1545 1545 1545 1545 1545 1545 1545 1545 1545 1545 1544 1544 1544 1544 1543 1543 1542 1542 1541 1541 1540 1539 1538 1537 1536 1535 1534
1468 1469 1470 1472 1473 1475 1476 1478 1480 1482 1484 1486 1488 1489 1491 1492 1494 1496 1498 1501 1502 1504 1505 1506 1506 1507 1509 1510 1511 1513 1514 1516 1518 1520 1522 1524 1526 1528 1529 1529 1530 1531 1531 1532 1533 1534 1535 1536 1536 1537 1538 1538 1539 1540 1540 1541 1542 1542 1543 1543 1543 1544 1544 1544 1544 1543 1543 1543 1543 1542 1542 1542 1541 1541 1540 1540 1539 1539 1538 1538 1537 1536 1535 1534 1532
1467 1468 1469 1470 1472 1474 1475 1477 1479 1481 1483 1485 1486 1488 1489 1491 1493 1494 1496 1498 1500 1501 1503 1504 1505 1506 1507 1508 1510 1511 1512 1514 1516 1518 1520 1522 1523 1525 1526 1527 1528 1529 1530 1531 1532 1532 1533 1534 1535 1535 1536 1536 1537 1538 1538 1539 1540 1540 1541 1541 1542 1542 1542 1542 1542 1542 1542 1541 1541 1540 1540 1539 1539 1538 1538 1537 1537 1537 1536 1536 1535 1534 1533 1532 1531
1466 1467 1468 1470 1471 1473 1474 1476 1478 1480 1482 1483 1485 1487 1488 1489 1491 1493 1494 1496 1498 1500 1501 1502 1503 1504 1505 1506 1508 1509 1510 1512 1514 1516 1517 1518 1520 1521 1523 1524 1526 1527 1528 1529 1530 1531 1532 1532 1533 1533 1534 1535 1535 1536 1537 1537 1538 1538 1539 1539 1539 1540 1540 1540 1540 1540 1540 1539 1539 1538 1538 1537 1537 1536 1535 1535 1535 1534 1534 1533 1533 1532 1531 1530 1529
1466 1467 1468 1469 1471 1472 1474 1475 1477 1479 1480 1481 1483 1485 1486 1488 1489 1491 1492 1494 1496 1498 1499 1500 1501 1502 1504 1505 1506 1507 1509 1510 1512 1513 1515 1516 1518 1519 1521 1523 1524 1524 1526 1527 1528 1529 1530 1530 1531 1531 1532 1533 1533 1534 1535 1535 1536 1536 1537 1537 1537 1537 1537 1538 1538 1538 1538 1537 1537 1536 1536 1535 1535 1534 1533 1532 1532 1532 1531 1531 1530 1529 1529 1528 1527
1465 1466 1468 1468 1470 1471 1473 1474 1476 1477 1479 1480 1482 1483 1485 1486 1487 1489 1491 1493 1495 1497 1497 1498 1500 1501 1502 1503 1504 1505 1507 1509 1510 1512 1514 1515 1516 1518 1519 1520 1521 1522 1523 1524 1525 1526 1527 1528 1528 1529 1530 1531 1531 1532 1533 1533 1534 1534 1534 1535 1535 1535 1535 1535 1535 1535 1535 1535 1535 1534 1534 1533 1533 1532 1531 1530 1530 1529 1529 1528 1527 1527 1526 1525 1525
1464 1466 1467 1468 1469 1470 1472 1473 1475 1476 1478 1479 1481 1482 1483 1485 1486 1488 1489 1491 1493 1495 1496 1497 1498 1499 1501 1502 1503 1505 1506 1508 1510 1511 1513 1514 1515 1516 1517 1519 1520 1520 1521 1521 1522 1522 1523 1524 1525 1526 1527 1528 1529 1530 1531 1531 1532 1532 1532 1532 1532 1532 1533 1533 1533 1533 1533 1533 1532 1532 1532 1531 1530 1529 1529 1528 1527 1527 1526 1525 1525 1524 1523 1523 1522
1463 1465 1466 1467 1468 1469 1471 1472 1473 1475 1476 1478 1479 1481 1482 1483 1485 1486 1488 1490 1492 1493 1494 1495 1496 1498 1499 1500 1502 1504 1505 1507 1509 1510 1512 1513 1514 1515 1516 1517 1518 1519 1519 1519 1519 1520 1520 1521 1522 1523 1524 1525 1527 1528 1528 1529 1530 1530 1530 1530 1530 1530 1530 1530 1530 1530 1530 1530 1530 1529 1529 1529 1528 1527 1526 1525 1525 1524 1523 1522 1522 1521 1520 1520 1519
1462 1463 1464 1465 1467 1468 1469 1471 1472 1474 1475 1477 1478 1479 1480 1482 1483 1485 1487 1489 1491 1492 1493 1493 1495 1496 1498 1499 1500 1502 1504 1506 1507 1509 1510 1511 1512 1513 1515 1516 1517 1517 1518 1518 1517 1517 1518 1518 1519 1520 1521 1523 1524 1525 1526 1527 1527 1528 1528 1528 1528 1528 1528 1528 1528 1527 1527 1527 1526 1526 1526 1526 1525 1524 1523 1523 1522 1521 1520 1520 1519 1518 1517 1517 1516
1460 1461 1462 1464 1465 1466 1468 1469 1471 1472 1474 1475 1477 1478 1479 1480 1482 1484 1486 1488 1489 1490 1491 1492 1493 1494 1496 1498 1499 1501 1502 1503 1504 1506 1507 1509 1510 1512 1513 1514 1515 1516 1516 1516 1515 1515 1516 1516 1517 1518 1519 1520 1521 1522 1523 1524 1525 1526 1526 1526 1526 1526 1525 1525 1525 1525 1524 1524 1523 1523 1523 1523 1522 1522 1521 1520 1519 1519 1518 1517 1516 1515 1514 1514 1513
1459 1460 1461 1462 1463 1464 1466 1467 1469 1470 1472 1474 1475 1477 1478 1479 1480 1483 1485 1486 1487 1488 1489 1490 1491 1493 1495 1496 1498 1499 1500 1501 1502 1503 1505 1506 1508 1510 1511 1512 1513 1514 1514 1513 1513 1513 1514 1515 1515 1516 1517 1518 1519 1520 1521 1522 1522 1523 1523 1523 1523 1523 1523 1523 1522 1522 1522 1521 1520 1520 1520 1519 1519 1518 1518 1517 1516 1515 1515 1514 1513 1512 1511 1511 1509
1457 1458 1459 1460 1461 1463 1464 1466 1467 1469 1470 1472 1474 1475 1476 1477 1479 1481 1483 1484 1485 1487 1488 1489 1491 1492 1493 1495 1496 1497 1498 1499 1500 1501 1503 1504 1506 1507 1509 1510 1511 1511 1511 1511 1511 1511 1512 1513 1514 1514 1514 1515 1517 1518 1519 1519 1520 1520 1520 1520 1520 1520 1520 1520 1519 1519 1518 1517 1517 1516 1516 1515 1515 1515 1514 1513 1513 1512 1511 1510 1510 1509 1508 1507 1506
1455 1456 1457 1458 1460 1461 1462 1464 1466 1467 1469 1471 1472 1474 1475 1476 1478 1480 1481 1482 1484 1486 1487 1488 1489 1490 1492 1493 1494 1495 1496 1497 1498 1499 1501 1503 1504 1505 1506 1507 1508 1509 1509 1509 1509 1510 1510 1511 1511 1512 1512 1513 1514 1515 1516 1517 1517 1517 1517 1517 1516 1516 1516 1516 1515 1515 1515 1514 1513 1513 1512 1512 1511 1511 1510 1510 1509 1508 1507 1506 1506 1505 1504 1503 1502
1454 1455 1456 1457 1458 1459 1461 1463 1464 1466 1468 1469 1471 1472 1474 1475 1477 1478 1480 1481 1483 1484 1485 1487 1488 1489 1490 1491 1492 1493 1494 1495 1496 1498 1500 1501 1502 1503 1505 1506 1507 1507 1507 1508 1508 1508 1508 1509 1509 1510 1510 1511 1512 1513 1513 1513 1513 1513 1513 1513 1512 1512 1512 1512 1512 1512 1511 1510 1510 1509 1509 1508 1507 1507 1506 1506 1505 1504 1503 1502 1501 1500 1500 1499 1498
1452 1453 1455 1456 1457 1458 1460 1461 1463 1465 1467 1468 1470 1471 1473 1474 1476 1477 1479 1480 1482 1483 1484 1485 1487 1488 1489 1490 1491 1492 1493 1494 1496 1497 1499 1500 1501 1502 1504 1505 1505 1506 1506 1506 1507 1507 1507 1507 1507 1508 1508 1509 1509 1509 1510 1510 1509 1509 1509 1509 1509 1509 1509 1509 1508 1508 1508 1507 1506 1506 1505 1504 1503 1503 1502 1501 1500 1499 1498 1497 1496 1495 1494 1493 1492
1451 1453 1454 1455 1456 1458 1459 1460 1462 1463 1465 1467 1469 1470 1472 1474 1475 1476 1478 1479 1481 1482 1484 1485 1486 1487 1488 1489 1491 1492 1493 1494 1496 1497 1498 1499 1501 1502 1503 1504 1504 1504 1505 1505 1505 1505 1506 1506 1506 1506 1506 1506 1506 1507 1507 1507 1506 1506 1506 1506 1505 1505 1505 1505 1505 1505 1504 1503 1502 1501 1500 1499 1499 1498 1497 1496 1495 1494 1492 1491 1490 1489 1488 1487 1486
1451 1452 1453 1454 1455 1457 1458 1459 1461 1462 1464 1466 1468 1470 1471 1473 1474 1476 1477 1479 1481 1482 1484 1485 1486 1487 1488 1489 1490 1491 1492 1494 1495 1497 1497 1499 1500 1501 1502 1502 1503 1503 1503 1503 1503 1504 1504 1504 1504 1504 1504 1504 1504 1504 1504 1504 1503 1503 1503 1502 1502 1502 1502 1501 1501 1501 1500 1499 1498 1497 1496 1495 1494 1493 1492 1491 1490 1488 1487 1486 1485 1484 1482 1481 1480